Wind_Speed
7 7 7 7 8 9 9 10 10 11 12 13 13 14 14 15 15 16 16 16 17 18 19 19 20 21 23 24 25 26 26 27 27 28 28 29 29 31 32 32 31 30 29 26 24 22 19 16 13 11 10 10 11 12 13 13 14 15 16 16 17 18 18 18 19 19 19 19 19
7 7 7 7 8 9 9 10 11 11 12 13 13 13 14 14 15 15 16 16 17 18 19 19 20 21 23 24 25 25 26 26 27 27 28 28 29 30 31 31 30 29 28 27 24 21 18 16 14 12 11 11 11 12 12 13 14 15 16 16 17 17 17 17 17 18 18 18 18
7 7 7 8 8 9 10 10 11 12 13 13 13 13 14 14 15 15 16 16 17 18 18 19 20 21 22 23 24 24 25 25 26 26 27 27 28 29 30 30 29 28 27 26 24 21 19 16 14 12 12 12 12 12 13 13 14 15 16 16 16 16 16 16 17 17 17 17 16
7 8 8 8 9 10 10 11 12 13 13 13 13 13 13 14 14 15 16 17 17 18 18 19 20 21 22 23 24 24 24 25 25 25 26 26 27 28 29 30 29 27 26 26 24 22 20 17 15 13 12 13 13 13 14 14 15 15 16 16 16 16 16 16 17 17 16 16 16
7 7 8 8 9 10 11 11 12 13 13 13 13 13 13 14 14 15 16 17 17 17 18 19 19 20 21 22 23 24 24 24 24 24 25 26 26 27 28 29 28 27 25 25 24 23 20 18 15 14 13 14 13 14 14 16 16 16 16 16 16 16 16 16 16 17 17 16 16
8 8 8 8 9 10 11 12 13 13 13 13 13 13 14 14 15 16 16 17 17 17 18 19 19 20 21 22 23 23 23 23 24 24 24 25 26 27 28 28 28 27 25 25 24 23 21 18 16 15 14 14 14 14 15 16 16 16 16 16 16 16 16 16 17 17 18 17 18
8 8 8 9 10 10 11 12 13 13 13 13 13 14 15 15 16 16 17 17 17 17 18 18 19 20 21 22 22 23 23 23 23 24 24 24 25 26 27 27 28 27 26 25 23 22 21 19 16 15 15 15 14 14 16 16 16 16 16 16 15 15 16 17 17 17 18 18 19
8 8 9 9 10 11 12 13 13 13 13 12 13 14 15 16 16 16 16 16 16 16 17 18 19 20 20 21 21 22 22 23 23 24 24 24 25 26 27 27 27 27 26 25 24 22 20 18 16 16 16 15 15 15 16 16 16 16 16 15 15 15 15 16 17 17 18 18 19
8 8 9 9 10 11 12 13 13 13 13 13 13 14 15 16 16 16 16 16 16 16 17 18 18 19 20 20 20 21 21 22 23 23 24 24 25 25 26 26 27 27 26 25 24 22 20 18 16 16 16 15 15 15 16 16 16 16 15 14 14 15 15 16 16 16 17 17 18
8 9 9 9 10 11 12 13 13 12 12 13 14 14 15 15 15 15 15 16 16 17 17 17 18 19 19 19 19 20 20 21 22 23 24 24 24 25 26 26 26 26 26 25 24 22 20 18 16 16 16 15 15 15 15 15 15 15 15 14 14 15 15 15 15 16 16 17 17
9 9 9 10 11 12 12 13 13 12 12 13 13 14 15 15 15 15 16 16 17 17 17 17 18 18 18 18 18 19 20 20 21 22 23 23 24 24 25 26 26 26 26 25 24 22 20 18 18 17 17 16 15 15 15 15 15 15 14 14 14 15 15 15 16 16 16 17 17
9 9 9 10 11 12 12 12 12 12 12 13 13 14 14 15 15 15 16 16 17 17 17 17 17 18 18 18 18 18 19 20 20 21 22 23 24 24 25 26 26 26 25 24 23 22 20 19 19 18 18 17 15 14 15 15 15 15 15 15 15 15 15 16 16 16 16 17 17
9 9 10 10 11 11 12 12 12 12 12 13 13 14 14 15 15 15 16 16 17 17 17 17 17 17 17 17 18 18 19 19 20 20 21 22 23 24 25 26 27 26 25 23 23 22 21 21 20 19 18 17 16 15 15 15 15 15 15 15 16 16 16 16 16 16 16 17 17
9 9 10 10 11 11 12 12 12 12 12 13 14 14 15 15 15 15 16 16 17 17 17 17 17 17 17 17 18 18 19 19 19 19 20 21 22 23 25 26 27 27 25 23 22 22 22 21 20 18 17 17 17 16 16 15 15 15 15 15 16 16 16 16 16 16 16 17 17
9 9 10 10 11 11 11 12 12 12 12 13 14 14 15 15 15 15 16 16 17 17 16 17 17 17 17 17 18 18 18 18 18 19 20 21 22 23 24 25 27 27 26 24 22 21 21 21 19 18 17 17 17 17 17 16 16 16 16 16 16 17 16 16 16 16 16 17 17
9 9 10 10 11 11 11 12 12 12 13 13 14 15 15 15 15 15 16 16 17 17 17 17 18 18 18 18 18 18 18 18 18 18 19 20 21 22 23 24 26 27 27 25 23 21 20 19 18 17 16 16 17 18 18 18 17 17 17 17 17 17 17 17 17 17 16 16 16
9 10 10 10 11 11 12 12 12 13 13 14 15 15 15 15 16 16 16 17 17 17 17 18 18 18 18 18 18 18 18 18 18 18 19 20 21 22 22 23 25 27 27 26 22 20 19 18 17 16 16 16 17 18 18 18 18 18 18 18 19 18 18 17 17 17 17 16 16
9 10 10 11 11 12 12 13 13 14 14 15 15 15 16 16 16 17 17 17 17 17 18 19 18 18 18 18 19 18 18 18 19 19 19 20 20 21 22 23 24 25 27 26 22 18 17 17 17 16 15 15 17 18 18 18 18 19 19 19 19 19 19 18 18 17 16 16 16
10 10 11 11 12 12 13 13 14 14 15 15 15 16 16 16 17 17 17 18 17 17 18 18 18 18 18 18 19 19 19 19 19 19 20 20 20 21 22 23 24 25 26 26 22 17 15 16 16 15 15 15 17 18 18 18 18 18 18 18 18 19 19 18 17 17 16 16 16
10 10 11 12 12 13 13 14 14 15 15 15 16 16 16 17 17 17 17 18 18 18 18 18 18 18 18 19 19 19 19 19 19 19 20 20 20 20 21 23 24 24 25 26 23 18 14 14 15 15 15 15 17 18 18 18 18 18 18 17 17 18 18 18 17 16 16 16 17
10 11 12 13 13 13 13 14 15 15 15 16 16 16 16 17 17 17 17 17 18 18 18 18 18 18 18 18 19 20 20 20 19 20 20 20 20 20 21 22 23 24 25 26 24 19 14 12 13 15 15 15 17 18 18 18 17 17 16 16 16 17 17 17 17 17 17 17 17
11 12 13 13 14 14 14 14 15 15 15 15 16 16 16 17 17 17 17 17 18 18 18 18 18 18 18 18 18 19 20 20 20 20 20 20 20 21 21 22 22 23 24 25 25 21 16 11 12 14 16 16 17 17 17 17 16 16 16 16 16 17 17 17 17 17 17 17 17
11 13 13 14 14 14 14 15 15 15 15 15 16 16 16 17 17 17 16 16 17 17 18 18 18 17 17 17 18 19 20 21 21 21 21 21 21 21 22 21 21 22 23 25 25 23 17 9 9 13 16 16 16 16 17 17 16 15 16 16 17 17 18 18 18 17 17 17 17
12 13 14 14 14 14 15 15 15 15 15 15 16 16 16 17 17 16 16 16 17 17 18 18 18 18 17 17 18 18 19 20 21 21 22 22 21 22 22 21 20 21 23 24 25 24 18 8 6 10 15 16 16 15 15 16 15 15 15 16 16 17 18 18 18 17 17 17 17
13 13 14 14 14 14 14 14 14 15 15 15 16 16 16 17 16 16 16 16 17 18 18 18 18 18 17 17 17 18 18 19 20 20 21 22 22 23 22 21 20 22 25 25 24 24 22 13 6 8 13 15 14 14 14 14 14 14 15 16 16 17 17 17 17 17 16 16 17
13 13 13 13 14 14 14 14 14 15 15 15 16 16 17 17 16 16 16 16 17 18 18 18 18 17 16 16 16 17 18 19 19 19 20 21 22 22 21 20 20 23 25 24 23 24 24 19 10 8 11 14 14 13 13 13 13 14 15 15 16 16 16 17 17 17 16 16 17
13 13 13 13 13 14 14 14 14 14 15 16 16 17 17 16 16 16 16 16 17 18 18 17 16 16 15 15 16 17 18 18 19 19 19 20 21 21 21 20 21 23 24 23 23 24 25 24 15 10 10 13 14 13 12 12 12 13 14 15 16 16 16 16 16 16 16 17 17
12 12 13 13 13 13 13 13 14 14 15 16 16 17 17 16 16 16 16 16 17 17 16 15 15 15 15 15 15 16 17 18 18 19 19 20 20 20 20 20 21 22 22 22 22 23 24 24 17 12 11 12 14 13 12 12 12 12 13 14 15 17 17 17 16 16 16 17 17
12 12 13 13 13 13 13 13 14 15 15 16 16 17 17 16 16 16 16 16 16 15 15 14 14 14 15 15 16 16 17 17 18 19 19 20 21 21 21 20 21 21 22 22 22 23 23 23 17 12 11 12 13 13 12 11 11 11 12 13 15 17 17 17 17 16 17 17 17
11 12 12 13 13 13 13 13 14 15 15 16 16 17 17 16 16 16 16 16 15 15 14 14 15 15 16 16 16 16 16 17 17 18 19 20 21 21 21 21 21 22 22 22 22 22 23 23 18 13 10 10 12 13 12 11 10 11 11 12 14 16 18 18 18 17 17 17 18
11 12 12 12 12 13 13 13 14 15 15 16 16 16 16 16 16 16 15 15 15 14 14 15 15 16 16 16 16 16 16 17 18 18 19 20 21 21 21 21 22 22 22 22 22 23 23 23 19 13 9 9 11 12 12 10 9 10 11 12 14 16 18 18 18 18 18 18 18
11 11 12 12 12 12 13 13 14 15 15 16 16 16 16 16 16 16 16 15 15 15 15 15 15 16 16 16 16 16 16 17 18 19 19 20 20 21 21 21 21 21 21 22 23 23 24 24 21 14 8 7 10 11 10 8 9 10 11 12 14 16 18 19 18 18 18 18 18
10 11 11 11 12 13 13 14 14 15 15 15 15 16 16 16 17 17 16 15 14 14 14 15 15 16 16 16 16 16 17 17 18 19 19 20 20 20 20 20 20 20 21 22 24 24 24 25 24 17 9 7 9 10 8 7 8 10 12 13 14 16 19 20 19 19 18 18 18
10 11 11 11 12 12 13 13 14 14 15 15 15 16 16 16 17 17 16 15 15 14 14 15 15 15 15 15 15 16 17 18 18 18 19 19 19 20 20 19 19 20 22 23 24 24 25 25 24 17 9 6 8 9 7 7 9 11 13 14 14 16 19 21 21 19 18 18 18
10 10 11 11 12 12 13 13 14 14 15 15 15 16 16 16 16 16 16 16 15 15 15 15 15 15 15 15 15 16 17 18 18 18 19 19 19 19 19 19 20 21 22 24 24 25 25 25 24 17 8 6 8 8 7 8 11 12 13 14 15 16 18 20 20 19 18 17 17
9 10 11 11 12 12 13 13 14 14 14 15 15 16 16 16 16 16 16 16 15 15 15 15 15 15 15 15 15 16 16 17 18 18 18 18 19 19 19 19 20 21 23 24 24 24 24 24 24 17 10 8 9 8 7 10 11 12 13 14 15 15 16 17 18 18 17 16 17
9 10 11 12 12 12 13 13 14 14 14 15 15 16 16 17 16 16 15 15 15 15 15 15 15 15 15 15 16 16 17 17 17 18 18 18 18 18 19 19 20 21 22 23 23 24 24 24 24 18 11 9 8 7 9 11 11 12 13 14 14 15 15 15 16 16 16 16 17
9 10 11 12 12 12 13 13 13 14 14 15 16 16 17 17 16 16 15 15 15 15 15 15 15 15 15 16 17 17 17 17 17 17 18 18 18 18 18 19 19 20 21 21 22 22 23 23 24 20 13 9 6 7 10 12 12 11 12 13 13 14 14 15 15 15 16 16 17
9 10 11 12 12 12 13 13 13 14 14 15 16 17 17 16 16 16 16 16 15 15 15 15 15 15 16 17 17 17 17 17 17 17 17 17 18 18 18 18 18 19 19 19 20 20 22 23 24 22 17 10 7 7 9 11 12 12 12 12 12 13 13 14 14 15 15 16 17
9 10 11 11 12 12 13 13 14 14 15 16 17 17 17 16 16 17 17 16 16 15 15 15 15 16 16 17 17 17 17 17 17 17 17 17 17 17 17 17 18 18 19 18 19 19 21 23 24 24 21 14 8 7 8 10 11 12 12 12 12 12 13 13 14 14 15 16 16
9 10 11 11 12 12 13 13 14 15 15 16 16 17 17 17 17 17 17 17 16 15 15 15 15 16 17 17 17 17 17 17 17 17 17 17 17 17 17 16 17 18 18 19 19 20 21 23 24 25 23 18 13 9 8 9 10 11 12 12 12 12 12 13 13 14 15 15 16
Wind_Direction
332 329 326 322 320 319 317 316 316 318 319 321 322 323 323 324 323 324 324 324 325 324 323 323 323 324 325 327 329 330 331 332 333 333 334 335 336 337 339 340 342 346 349 350 352 352 351 349 343 334 323 312 306 303 301 299 298 298 298 297 297 296 295 293 291 290 290 288 287
329 327 324 320 318 318 316 315 316 318 320 321 321 322 323 324 323 323 322 323 323 323 323 323 324 325 326 328 330 331 331 332 334 335 336 337 337 339 340 340 343 346 348 350 352 353 352 349 344 337 329 320 313 309 305 301 301 300 299 298 297 296 295 294 292 291 291 290 289
327 326 323 321 320 319 318 318 318 320 321 321 320 321 322 323 323 322 322 323 323 324 324 323 324 326 327 329 331 332 332 334 335 336 337 338 339 340 341 341 343 346 348 349 350 351 351 348 344 340 333 326 319 314 310 306 305 304 302 302 300 298 297 295 295 295 294 294 292
325 324 323 321 320 320 319 317 318 320 321 320 320 320 320 321 321 321 321 321 322 324 324 325 325 327 328 329 331 332 334 335 337 338 339 340 340 342 342 342 343 346 348 348 348 348 349 348 346 342 336 330 322 316 314 313 311 308 306 306 303 301 300 298 299 299 299 296 295
322 323 322 319 319 319 319 318 318 319 320 319 319 320 321 322 322 322 321 322 323 324 325 326 325 327 329 330 331 332 334 336 338 339 340 340 341 343 343 343 345 346 347 348 347 347 347 347 346 343 339 336 331 326 322 320 317 313 311 311 309 306 304 302 303 304 302 299 297
319 318 318 318 318 318 318 318 318 318 318 317 317 319 321 322 322 322 323 323 324 325 326 327 327 329 330 331 332 334 335 337 339 340 340 341 343 344 344 345 346 346 346 347 347 346 346 346 346 345 344 339 336 334 333 331 326 321 319 318 315 312 310 309 309 309 307 304 301
316 315 316 317 318 318 317 317 317 317 317 317 317 319 321 322 322 322 322 322 324 325 327 328 329 330 331 332 333 335 336 338 339 340 341 342 343 344 345 345 347 347 347 347 346 346 346 346 345 346 347 345 343 342 342 340 337 333 329 326 325 323 321 320 319 317 314 311 309
313 313 314 315 316 316 317 317 317 317 317 318 319 320 321 322 322 323 323 323 325 326 327 328 328 329 331 332 334 336 337 337 339 341 341 342 343 344 345 346 348 348 348 347 346 345 345 345 345 345 346 347 346 345 345 346 345 343 340 337 337 335 333 332 329 327 324 322 321
312 313 315 315 316 317 317 317 316 317 317 318 319 320 322 322 323 323 324 324 325 325 326 327 327 329 331 333 334 335 337 338 340 341 342 342 343 343 345 346 347 348 348 347 345 344 343 343 343 344 346 346 346 346 347 348 349 350 349 347 346 345 345 344 343 340 337 335 333
311 313 315 315 316 317 317 317 316 316 316 317 319 320 322 323 323 324 324 323 323 323 324 325 326 328 330 331 334 335 337 338 339 341 342 342 343 344 345 345 346 346 346 346 344 343 342 342 340 341 343 344 344 345 347 350 351 352 353 352 350 350 350 350 349 348 346 344 342
311 312 314 315 317 317 318 317 316 315 315 316 319 321 322 323 323 323 323 322 322 322 324 325 326 328 329 329 332 334 336 336 338 340 342 342 343 344 344 345 346 346 345 344 343 342 341 340 338 338 339 341 342 344 346 348 350 351 351 350 349 349 349 349 349 349 348 345 344
310 312 314 315 316 317 318 318 316 315 315 316 319 321 322 322 323 322 322 323 322 322 323 325 325 326 327 328 329 331 333 334 336 338 340 342 343 344 345 346 347 346 344 343 342 341 340 338 337 337 338 340 342 343 344 346 348 349 349 348 348 347 347 347 348 348 347 345 344
311 311 313 315 317 317 318 318 317 315 315 317 319 320 321 321 322 322 322 323 322 323 323 324 324 324 324 325 327 328 330 331 333 336 338 340 343 344 346 347 348 347 344 342 342 341 339 338 338 337 337 339 343 345 346 346 347 348 347 347 348 348 347 346 346 347 347 347 346
312 312 314 315 317 318 318 318 317 315 315 317 319 320 321 321 321 322 323 322 323 323 323 322 323 323 323 323 324 326 327 328 330 333 335 338 340 343 345 347 349 348 345 342 341 339 339 340 340 339 339 341 346 350 351 351 350 349 348 347 347 347 347 346 346 347 347 347 347
313 314 315 316 318 319 319 319 317 316 316 317 318 320 320 320 320 321 322 322 322 322 321 322 323 323 323 323 323 324 325 327 328 330 333 336 338 341 343 346 348 348 347 344 340 338 339 341 342 341 341 345 352 358 360 359 357 355 353 351 350 349 348 347 347 347 347 346 346
315 316 316 317 319 319 319 319 318 316 316 317 318 319 319 318 318 319 321 322 322 321 321 322 323 324 324 324 325 325 325 326 328 329 331 333 336 338 340 342 346 349 349 346 341 338 338 343 344 343 343 348 358 5 7 6 5 3 0 357 355 353 352 350 349 349 348 347 346
317 317 318 318 318 319 318 318 317 316 315 316 317 318 318 318 318 319 320 321 321 322 322 322 323 323 323 325 327 327 326 327 327 328 329 331 332 334 336 338 342 347 349 348 342 337 337 342 344 344 345 352 3 10 12 11 10 8 6 3 0 357 355 353 353 352 350 348 345
316 317 318 318 318 318 317 316 316 315 315 315 316 316 316 317 317 319 320 321 321 321 321 322 323 324 324 325 327 328 328 327 327 327 327 328 330 331 333 335 339 344 348 349 344 336 333 338 341 343 347 355 5 11 14 13 11 10 8 5 3 0 359 356 355 353 351 348 345
315 317 317 318 318 317 317 316 315 315 314 315 315 315 315 316 317 318 320 322 322 322 321 321 323 324 325 326 327 328 329 328 327 327 327 327 328 329 331 333 336 340 344 348 345 337 330 333 336 340 347 357 6 12 13 12 10 9 7 4 1 360 359 357 355 354 352 350 347
314 316 317 318 319 318 316 316 315 315 315 315 315 314 314 316 317 319 320 322 323 323 322 321 322 323 325 327 328 329 330 330 329 328 327 328 328 328 330 332 335 338 341 345 345 340 330 329 333 341 350 359 8 11 12 10 8 6 3 360 357 356 355 354 352 352 352 352 349
314 316 318 320 321 319 316 316 316 315 315 315 315 314 314 316 317 318 320 321 323 323 323 323 323 324 325 327 328 329 331 331 330 330 329 329 328 328 329 332 335 337 339 341 344 340 331 326 333 343 353 2 8 10 9 7 4 2 359 356 353 353 352 351 349 349 350 351 349
314 318 321 322 322 320 318 318 317 317 316 316 316 315 315 316 317 319 320 321 322 323 323 323 323 324 325 325 327 329 331 332 331 331 331 330 330 330 330 332 334 336 337 339 341 337 329 322 336 347 355 2 7 8 6 4 0 357 354 354 353 352 352 351 348 347 347 347 345
316 321 323 324 323 322 321 319 319 318 318 317 317 317 316 317 318 319 320 320 321 322 323 323 324 324 325 325 326 328 329 330 331 332 332 332 332 332 332 333 333 334 336 338 340 336 329 320 339 351 356 1 3 4 2 1 358 354 353 353 352 352 351 350 348 346 344 342 341
319 323 325 325 325 324 323 321 320 319 319 319 319 318 318 318 319 320 320 320 321 322 323 324 324 325 325 325 326 326 327 328 329 330 331 333 333 334 334 334 333 334 336 340 340 339 337 329 339 352 356 358 359 358 357 357 354 352 351 350 349 349 348 348 346 344 341 338 337
321 325 326 325 325 324 324 322 320 320 320 320 321 321 320 321 321 320 319 320 321 322 323 324 324 325 324 322 323 324 326 327 327 327 329 331 333 334 335 334 332 334 339 343 338 338 339 338 341 355 357 357 356 355 354 352 351 350 350 349 348 347 345 344 343 341 339 336 336
323 326 326 325 325 324 324 322 321 321 322 322 323 323 323 323 322 321 320 319 321 323 324 324 324 322 320 317 319 322 325 326 326 326 326 328 330 331 332 332 331 335 339 341 337 335 337 338 341 357 2 358 355 353 351 348 348 349 350 351 350 347 344 342 340 339 337 335 334
324 326 326 326 326 325 323 323 323 323 324 324 325 325 325 325 324 322 320 319 321 323 325 324 321 318 316 315 316 320 323 325 325 325 325 325 326 327 328 329 330 333 336 336 334 335 337 338 340 353 4 0 357 353 349 345 344 347 350 352 352 350 347 342 339 337 336 334 333
323 325 326 326 325 324 324 324 325 325 325 326 327 327 327 327 325 322 320 320 322 323 322 320 318 317 316 314 315 317 320 322 324 325 325 324 324 325 326 327 328 330 332 333 334 336 338 339 343 355 6 2 358 354 350 344 342 344 349 352 353 352 350 346 342 339 336 334 333
323 325 326 326 325 325 325 326 326 327 327 328 329 329 329 328 326 323 321 320 321 319 317 316 317 317 316 314 314 315 317 320 323 324 324 324 324 324 324 325 326 328 330 332 334 336 338 340 342 353 4 2 358 354 349 343 338 340 346 351 354 354 353 349 345 341 338 336 334
322 325 326 326 325 325 325 326 327 328 329 330 330 331 330 329 327 324 322 320 318 316 315 315 316 316 315 313 313 314 316 319 321 322 323 323 323 323 323 324 325 328 330 332 334 336 337 338 338 342 354 1 359 356 352 342 334 335 341 347 352 354 354 351 347 343 340 338 336
321 325 326 326 324 324 325 326 327 328 329 330 331 331 330 329 327 325 323 320 317 315 315 315 315 315 314 314 313 313 315 317 319 321 322 322 322 322 322 322 324 326 329 332 334 335 335 335 333 333 344 358 0 358 351 338 327 327 335 342 348 351 353 352 349 345 342 339 337
320 324 325 324 323 323 325 326 327 328 329 329 330 330 330 330 328 327 324 322 318 316 315 315 316 316 315 314 314 313 314 316 318 320 321 321 320 320 320 321 322 324 327 330 332 333 333 332 330 327 333 353 359 359 351 331 319 324 334 340 344 348 350 351 349 346 343 341 339
318 323 324 322 322 323 324 326 327 328 328 329 329 329 330 330 329 328 327 324 320 317 316 316 316 316 316 315 314 314 315 316 317 319 320 321 320 320 319 319 320 322 325 327 329 330 331 330 329 327 326 345 359 360 350 325 322 329 337 340 343 344 346 348 348 346 343 341 339
317 321 322 320 321 322 324 325 326 327 327 327 328 329 329 329 329 329 328 326 322 319 317 316 316 315 314 314 314 314 314 315 317 319 320 321 321 320 319 319 319 320 323 324 326 328 329 329 330 329 330 349 4 3 351 327 333 337 339 341 341 342 343 344 345 344 342 340 339
316 319 318 317 320 321 322 324 325 326 326 326 327 328 328 329 328 328 327 326 323 320 318 317 316 315 314 314 314 313 314 315 317 319 321 323 322 321 320 319 318 320 322 324 325 326 327 328 331 334 344 11 15 9 353 336 337 339 339 339 340 339 340 341 342 341 340 338 338
314 316 315 316 318 320 321 322 324 324 324 324 325 326 327 328 328 328 327 326 323 321 320 319 318 317 316 316 315 315 315 317 319 321 323 324 324 322 321 320 319 320 323 326 326 326 326 327 330 336 356 24 22 10 350 340 338 338 337 337 337 337 337 338 338 337 336 336 337
311 313 314 315 317 318 320 322 322 322 322 323 324 325 326 327 327 327 326 325 324 322 321 321 321 319 318 318 317 316 317 318 320 322 323 324 325 324 322 321 319 321 325 328 328 327 325 326 328 334 351 19 19 0 343 338 337 336 335 335 334 334 335 335 336 335 334 334 336
306 309 312 315 317 317 319 320 320 320 321 322 324 325 326 326 325 325 325 325 323 321 321 321 320 320 320 320 318 317 317 319 320 322 323 324 325 325 323 321 320 321 325 328 328 326 324 324 325 328 339 1 2 345 336 336 333 332 332 332 331 331 332 334 335 334 333 334 337
302 306 311 314 315 315 316 317 318 319 320 322 323 325 326 325 324 324 324 324 322 320 318 318 318 319 320 320 318 317 318 319 321 323 324 325 325 325 323 320 319 320 324 326 326 324 322 321 323 325 328 335 336 332 330 330 328 327 327 328 328 329 331 333 334 334 334 334 337
298 304 309 312 312 313 313 315 316 319 320 322 323 324 324 324 323 323 324 324 322 319 317 316 316 318 320 320 319 318 318 320 322 324 324 325 324 324 322 319 317 317 320 322 322 321 320 320 322 323 323 321 319 318 320 322 322 323 324 326 327 328 330 331 333 334 334 335 336
295 301 305 308 309 310 312 313 316 318 320 322 322 322 323 323 324 324 325 324 322 319 316 314 316 318 320 321 319 318 319 320 323 325 326 325 324 323 321 318 315 314 315 317 319 319 319 318 320 322 322 321 320 317 313 313 316 319 322 326 329 329 329 331 333 334 335 336 337
Height
897 896 895 894 894 893 892 890 889 888 887 886 884 883 881 880 878 877 875 874 872 870 868 866 864 862 860 859 857 854 852 850 848 845 843 841 838 835 832 829 827 824 822 819 816 814 812 810 809 807 806 805 804 803 802 800 799 798 797 796 795 793 792 791 789 788 787 786 785
897 896 895 894 893 892 891 890 889 888 887 885 884 883 881 880 878 877 875 874 872 870 868 866 864 862 860 858 856 854 852 850 847 845 843 840 838 835 833 829 827 824 822 819 817 815 813 811 809 808 806 805 804 802 801 800 799 798 796 795 794 793 791 790 788 787 786 784 784
896 895 894 894 893 892 891 890 889 887 886 885 884 882 881 879 878 876 875 873 871 870 868 866 864 862 860 858 856 854 852 850 847 845 843 840 838 835 833 830 827 825 823 820 818 816 814 812 810 808 807 805 804 802 801 800 799 797 796 794 793 792 790 789 787 786 785 784 782
895 895 894 893 892 891 890 889 888 887 886 884 883 882 880 879 877 876 874 873 871 869 867 866 864 862 859 858 855 854 852 849 847 845 843 840 838 835 833 830 827 825 823 821 818 816 814 812 810 809 807 805 804 802 801 799 798 797 795 794 793 791 790 788 787 785 784 783 781
895 894 893 893 892 891 890 889 888 886 885 884 882 881 880 878 877 875 874 872 870 869 867 865 863 861 859 857 855 853 851 849 847 845 843 840 838 835 833 830 828 825 823 821 819 817 814 813 811 809 807 805 804 802 801 799 798 796 795 794 792 791 789 788 786 785 783 782 780
894 894 893 892 891 890 889 888 887 886 884 883 882 881 879 878 876 875 873 872 870 868 866 865 863 861 859 857 855 853 851 849 847 844 842 840 838 835 833 830 828 826 824 821 819 817 815 813 811 809 807 806 804 802 801 799 798 796 795 793 792 790 789 787 786 784 783 781 779
894 893 892 891 890 889 889 888 886 885 884 883 881 880 879 877 876 874 873 871 869 868 866 864 862 860 859 856 854 853 850 848 846 844 842 840 838 835 833 831 828 826 824 822 819 817 815 814 812 810 808 806 804 803 801 800 798 796 795 793 792 790 789 787 785 784 782 780 779
893 893 892 891 890 889 888 887 885 884 883 882 880 879 878 876 875 874 872 870 869 867 865 864 862 860 858 856 854 852 850 848 846 844 842 840 838 835 833 831 829 826 824 822 820 818 816 814 812 810 809 807 805 803 802 800 799 797 795 794 792 790 789 787 785 784 782 780 778
893 892 891 890 889 888 887 886 885 884 882 881 880 879 877 876 874 873 871 870 868 866 865 863 861 859 858 856 854 852 850 848 846 844 842 840 838 835 833 831 829 827 824 822 820 818 816 814 813 811 809 807 805 804 802 800 799 797 795 794 792 791 789 787 786 784 782 780 778
892 891 890 889 889 888 886 885 884 883 882 880 879 878 876 875 874 872 871 869 867 866 864 863 861 859 857 855 854 852 850 848 846 844 842 839 838 835 833 831 829 827 825 823 820 818 816 814 813 811 809 807 806 804 802 800 799 797 796 794 792 791 789 787 786 784 782 780 778
892 891 890 889 888 887 885 884 883 882 881 879 878 877 875 874 873 871 870 868 867 865 864 862 860 858 857 855 853 851 849 848 846 844 842 839 838 835 834 831 829 827 825 823 821 819 817 815 813 811 809 807 805 804 802 800 799 797 796 794 792 791 789 787 785 784 782 780 778
891 890 889 888 887 886 885 884 882 881 880 879 877 876 874 873 872 870 869 867 866 864 863 861 859 858 856 854 853 851 849 847 845 844 842 839 838 835 834 831 829 827 825 824 821 819 817 815 813 811 809 807 805 804 802 800 799 797 795 794 792 790 789 787 785 784 782 780 778
890 889 889 887 886 885 884 883 882 880 879 878 876 875 874 872 871 869 868 867 865 863 862 860 859 857 855 854 852 850 849 847 845 843 841 839 838 835 833 831 829 827 825 824 822 819 817 815 813 811 809 807 805 804 802 800 798 797 795 793 792 790 788 787 785 784 782 780 779
889 889 888 887 886 884 883 882 881 879 878 877 876 874 873 871 870 869 867 866 864 862 861 859 858 856 854 853 851 849 848 846 845 843 841 839 837 835 833 831 829 827 825 824 822 820 818 815 813 811 809 808 805 804 802 800 798 797 795 793 791 789 788 786 785 783 782 780 778
889 888 887 886 885 884 883 881 880 879 878 876 875 874 872 871 869 868 866 865 863 862 860 859 857 855 854 852 850 849 847 846 844 842 840 839 837 835 833 831 829 827 825 823 822 820 818 815 813 811 809 808 805 803 801 800 798 796 795 793 791 789 788 786 784 783 781 780 778
888 887 886 885 884 883 882 881 879 878 877 875 874 873 871 870 868 867 865 864 862 861 859 858 856 854 853 851 849 848 846 845 843 841 840 838 836 834 833 831 829 827 825 823 821 819 818 816 814 812 810 808 806 804 801 800 798 796 794 793 791 789 788 786 784 783 781 780 778
888 887 885 884 883 882 881 880 879 877 876 874 873 872 870 869 868 866 864 863 862 860 859 857 855 854 852 850 849 847 845 844 842 841 839 837 835 834 832 830 829 827 824 823 821 819 817 815 814 812 810 808 806 804 802 800 798 796 794 793 791 789 788 786 784 783 781 780 778
887 886 885 884 883 881 880 879 878 876 875 874 872 871 869 868 867 865 864 862 861 859 858 856 854 853 851 849 848 846 845 843 841 840 838 836 835 833 831 830 828 826 824 823 821 819 817 815 814 812 810 808 806 804 802 800 798 796 794 793 791 789 787 786 784 783 781 780 778
886 885 884 883 882 880 879 878 877 875 874 873 871 870 869 867 866 864 863 861 860 859 857 855 854 852 850 849 847 846 844 842 840 839 837 835 834 832 830 829 827 825 824 822 820 819 817 815 814 812 810 808 806 804 802 800 798 796 794 792 791 789 787 786 784 783 781 780 778
885 884 883 882 881 879 878 877 876 874 873 872 870 869 867 866 864 863 862 860 859 858 856 854 853 851 849 848 846 844 843 841 840 838 836 834 833 831 829 828 826 824 823 821 820 818 817 815 814 812 810 808 805 804 801 799 798 796 794 792 791 789 787 785 784 783 781 779 778
884 884 882 881 880 879 878 876 875 874 872 871 869 868 866 865 864 862 861 859 858 856 855 854 852 850 849 847 845 844 842 840 839 837 835 834 832 830 829 827 825 824 822 820 819 818 816 815 814 812 809 807 805 803 801 799 798 796 794 793 791 789 787 785 784 782 781 779 778
884 883 881 880 879 878 877 875 874 873 871 870 868 867 865 864 862 861 859 858 857 855 854 853 851 849 848 846 845 843 841 839 838 836 835 833 831 829 828 826 824 822 821 819 818 817 816 814 813 811 809 807 805 803 801 799 798 796 794 793 791 789 787 785 784 782 780 779 778
883 881 880 879 878 877 876 874 873 872 870 869 867 866 864 863 861 860 859 857 856 854 853 852 850 849 847 846 844 842 840 839 837 835 834 832 830 829 827 825 823 822 820 818 817 816 815 813 812 811 809 807 805 803 801 799 798 796 794 793 790 789 787 785 783 782 780 779 777
882 881 879 878 877 876 875 873 872 871 869 868 866 865 863 862 860 859 858 856 855 854 852 851 849 848 846 845 843 842 840 838 836 834 833 831 829 828 826 824 822 821 819 818 816 815 814 812 811 809 808 806 804 803 801 799 798 796 794 792 790 789 787 785 783 782 780 779 777
881 880 879 878 876 875 874 873 871 870 869 867 865 864 863 861 859 858 856 855 854 853 851 849 848 847 845 844 843 841 839 838 836 834 832 830 828 827 825 823 822 820 818 816 815 814 813 811 810 809 807 806 804 802 801 799 798 796 794 793 790 789 786 784 783 781 780 778 777
880 879 878 877 875 874 873 872 870 869 868 866 864 863 862 860 859 857 856 854 853 851 850 849 847 846 845 843 842 840 839 837 835 833 831 829 828 826 824 823 821 819 817 816 815 814 812 810 809 808 807 805 804 802 800 799 798 796 794 793 791 789 787 784 783 781 779 778 776
879 878 877 876 875 874 872 871 870 868 867 865 864 862 861 859 858 856 855 854 852 851 849 848 847 845 844 843 841 839 838 836 834 833 831 829 827 826 824 822 820 819 817 815 814 813 811 809 808 807 806 805 803 802 800 799 798 796 794 793 791 789 787 785 783 781 779 778 776
878 877 876 875 874 873 872 870 869 868 866 864 863 861 860 858 857 855 854 853 851 850 849 847 846 845 844 842 840 839 837 835 834 832 830 829 827 825 824 822 820 818 816 815 814 813 811 809 808 806 805 804 803 801 800 799 797 796 794 792 790 789 787 785 783 781 779 777 775
877 876 875 874 873 872 871 869 868 867 865 864 862 861 859 858 856 855 853 852 850 849 848 847 845 844 843 841 839 838 836 835 833 831 830 828 826 824 823 821 819 818 816 815 814 812 810 809 807 806 805 804 803 801 800 799 797 795 794 792 790 789 787 785 783 781 779 777 775
876 875 874 874 872 871 870 869 868 866 865 863 862 860 859 857 855 854 853 851 850 849 848 846 845 844 842 840 839 837 836 834 833 831 829 827 825 824 822 820 819 817 815 814 813 811 810 808 807 805 804 804 802 801 799 798 796 795 794 792 790 789 787 785 783 781 779 777 775
876 874 874 873 872 870 869 868 867 865 864 863 861 859 858 856 855 854 852 851 849 848 847 845 844 843 841 840 838 837 835 834 832 830 829 827 825 823 821 819 818 816 814 813 812 811 809 807 806 804 804 803 802 800 798 797 796 794 793 792 790 788 787 785 783 781 779 777 775
875 874 873 872 871 870 869 867 866 864 863 862 860 859 857 856 854 853 851 850 849 847 846 844 843 842 840 839 838 836 834 833 831 829 828 826 824 822 820 819 817 815 814 812 811 809 808 806 805 804 803 802 801 799 797 796 795 794 793 791 789 788 786 784 783 781 779 777 775
874 873 872 871 870 869 868 866 865 864 863 861 860 859 857 855 854 852 851 849 848 847 845 844 842 841 839 838 837 835 834 832 830 829 827 825 824 822 820 818 816 814 813 812 810 809 807 805 803 802 801 801 799 797 796 795 794 794 792 791 789 787 786 784 783 781 779 777 775
873 872 871 870 869 868 867 866 864 863 862 860 859 858 856 855 853 852 850 849 847 846 844 843 842 840 839 838 836 834 833 831 829 828 826 824 823 821 819 818 816 814 812 811 809 807 806 804 802 801 800 799 798 796 795 795 794 793 791 790 789 787 785 784 782 780 779 777 775
872 871 870 869 868 867 866 865 864 862 861 860 859 857 856 854 853 851 849 848 847 845 844 843 841 840 838 837 835 834 832 830 829 827 825 824 822 820 819 817 815 813 811 810 808 806 804 803 801 799 798 797 796 795 794 794 793 792 790 789 788 786 785 783 781 780 779 777 775
871 870 869 868 867 866 865 864 863 862 860 859 858 856 855 854 852 851 849 848 846 845 843 842 840 839 838 836 834 833 831 830 828 827 825 823 822 820 818 816 814 812 810 809 807 805 804 802 800 799 797 795 794 794 794 793 792 791 789 788 787 786 784 783 781 780 778 777 775
870 869 869 867 866 865 864 863 862 861 860 859 857 856 854 853 851 850 849 847 845 844 843 841 840 838 837 835 834 832 831 829 828 826 824 823 821 819 817 815 814 811 809 808 806 804 802 801 799 798 796 794 793 793 793 792 791 789 789 787 786 785 784 782 781 779 778 776 775
869 868 867 866 865 864 864 862 861 860 859 858 856 855 854 852 851 849 848 846 845 844 842 840 839 838 836 835 833 832 830 829 827 826 824 822 820 819 817 815 813 811 809 807 805 803 801 800 798 797 796 793 793 792 792 791 790 789 787 786 785 784 783 782 780 779 777 776 774
868 867 866 865 864 864 863 862 860 859 858 857 855 854 853 852 850 849 847 846 844 843 841 840 839 837 835 834 833 831 829 828 827 825 824 822 820 818 817 814 812 810 808 806 804 803 801 799 797 796 795 793 792 792 791 790 789 788 787 785 784 783 782 781 780 779 777 775 774
867 866 865 864 864 863 862 861 860 859 858 856 855 854 852 851 849 848 846 845 844 842 841 839 838 836 835 834 832 830 829 827 826 824 823 821 819 818 816 814 812 809 807 805 804 802 800 799 797 796 794 793 792 791 790 789 789 787 786 785 784 782 781 780 779 778 776 775 773
866 865 864 864 863 862 861 860 859 858 857 855 854 853 852 850 849 847 846 844 843 842 840 839 837 836 834 833 832 830 828 826 825 824 822 820 819 817 815 813 811 809 806 804 803 802 800 799 797 796 794 792 791 790 789 789 788 787 785 784 783 782 781 779 779 777 776 774 773